Home   Weather   Mysen   Past weeks

Flag for Norway Past Weather in Mysen, Norway — Yesterday and Last 2 Weeks

Now
30 °F

Sunny.


Feels Like: 30 °F
Forecast: 22 / 30 °F
Wind: 2 mph from Southeast

Location: Rygge

Current Time: Dec 3, 2016 at 3:01:26 pm

Latest Report: Dec 3, 2016 at 2:00 pm


Visibility: 13 mi

Pressure: 30.14 "Hg

Humidity: 91%

Dew Point: 28 °F

Location of MysenLocation

Past Weather in Mysen — Graph

°F

Mysen Temperature Yesterday

Maximum temperature yesterday: 40 °F (at 1:00 pm)
Minimum temperature yesterday: 29 °F (at 10:00 pm)
Average temperature yesterday: 34 °F

High & Low Weather Summary for the Past Weeks

 TemperatureHumidityPressure
High49 °F (Nov 26, 12:00 pm)99% (Nov 22, 3:00 pm)30.47 "Hg (Nov 22, 3:00 pm)
Low19 °F (Dec 3, 5:00 am)42% (Nov 27, 12:00 pm)29.00 "Hg (Nov 18, 1:00 pm)
Average37 °F79%29.86 "Hg
* Reported Nov 18 1:00 pm — Dec 3 1:00 pm, Mysen, Weather by CustomWeather, © 2016

Note: Actual official high and low records may vary slightly from our data, if they occured in-between our weather recording intervals... More about our weather records

Advertising

Mysen Weather History for the Previous 24 Hours

Scroll right to see more
 ConditionsComfort  
Time TempWeatherWind HumidityBarometerVisibility
1:00 pm
Sat, Dec 3
30 °FPassing clouds.1 mph90%30.14 "Hg13 mi
12:00 pm30 °FScattered clouds.1 mph89%30.14 "Hg19 mi
11:00 am27 °FPassing clouds.2 mph94%30.14 "Hg19 mi
10:00 am26 °FPartly sunny.1 mph93%30.16 "Hg15 mi
9:00 am24 °FScattered clouds.2 mph93%30.15 "Hg19 mi
8:00 am22 °FOvercast.1 mph93%30.15 "Hg22 mi
7:00 am21 °FPassing clouds.2 mph96%30.16 "Hg28 mi
6:00 am20 °FClear.1 mph95%30.16 "Hg28 mi
5:00 am19 °FPassing clouds.1 mph93%30.17 "Hg31 mi
4:00 am20 °FClear.1 mph93%30.17 "Hg22 mi
3:00 am22 °FClear.1 mph88%30.19 "Hg31 mi
2:00 am23 °FPassing clouds.1 mph91%30.19 "Hg31 mi
1:00 am24 °FPassing clouds.2 mph87%30.19 "Hg31 mi
12:00 am25 °FClear.1 mph82%30.19 "Hg28 mi
11:00 pm
Fri, Dec 2
29 °FPassing clouds.2 mph72%30.18 "Hg31 mi
10:00 pm29 °FPassing clouds.1 mph74%30.19 "Hg31 mi
9:00 pm33 °FPassing clouds.3 mph64%30.18 "Hg31 mi
7:00 pm33 °FClear.3 mph64%30.16 "Hg31 mi
5:00 pm36 °FClear.5 mph54%30.15 "Hg31 mi
4:00 pm35 °FClear.3 mph56%30.14 "Hg31 mi
3:00 pm37 °FSunny.2 mph50%30.12 "Hg31 mi
Weather by CustomWeather, © 2016

See weather overviewHow to use our weather pages